Weather History for Pakanbaru, Indonesia

Change the Weather History Date:

Friday, August 16, 2013

  Actual Average Record
Temperature  
Mean Temperature 84 °F -  
Max Temperature 94 °F - - ()
Min Temperature 73 °F - - ()
Cooling Degree Days 18    
Growing Degree Days 34 (Base 50)    
Moisture  
Dew Point 73 °F    
Average Humidity 67    
Maximum Humidity 95    
Minimum Humidity 35    
Precipitation  
Precipitation 0.00 in - - ()
Sea Level Pressure  
Sea Level Pressure 29.76 in    
Wind  
Wind Speed 3 mph ()    
Max Wind Speed 9 mph    
Max Gust Speed -    
Visibility 5.3 miles    
Events      
T = Trace of Precipitation, MM = Missing Value Source: Averaged Metar Reports

Daily Weather History Graph

Daily Weather History Graph

Search for Another Location

Airport:

Trip Planner

Search our weather history database for the weather conditions in past years. The results will help you decide how hot, cold, wet, or windy it might be!

Date:

Astronomy

Aug. 16, 2013 Rise Set
Actual Time 6:14 AM WIB 6:22 PM WIB
Civil Twilight 5:53 AM WIB 6:43 PM WIB
Nautical Twilight 5:28 AM WIB 7:08 PM WIB
Astronomical Twilight 5:03 AM WIB 7:33 PM WIB
Moon 1:43 PM WIB (8/16) 1:11 AM WIB (8/16)
Length of Visible Light 12h 50m
Length of Day
12h 07m
Waxing Gibbous, 70% of the Moon is Illuminated
Aug 16
Waxing Gibbous
Aug 21
Full
Aug 28
Last Quarter
Sep 5
New
Sep 13
First Quarter

Hourly Weather History & Observations

Time (WIB) Temp. Heat Index Dew Point Humidity Pressure Visibility Wind Dir Wind Speed Gust Speed Precip Events Conditions
6:00 AM 73.4 °F - 71.6 °F 94% 29.80 in 5.0 mi Calm Calm - N/A   Unknown
7:00 AM 73 °F - 72 °F 95% 29.81 in 5 mi Calm Calm - -   Partly Cloudy
7:00 AM 73.4 °F - 71.6 °F 94% 29.80 in 5.0 mi Calm Calm - N/A   Unknown
8:00 AM 77.0 °F - 73.4 °F 89% 29.83 in 5.0 mi Calm Calm - N/A   Unknown
9:00 AM 80.6 °F 85.4 °F 73.4 °F 79% 29.83 in - Calm Calm - N/A   Clear
10:00 AM 84 °F - 75 °F 69% 29.83 in 6 mi ESE 5.8 mph - -   Partly Cloudy
10:00 AM 84.2 °F 90.9 °F 73.4 °F 70% 29.83 in - SSE 5.8 mph - N/A   Clear
11:00 AM 86.0 °F 95.1 °F 75.2 °F 70% 29.80 in 6.2 mi SSW 5.8 mph - N/A   Scattered Clouds
12:00 PM 89.6 °F 99.8 °F 75.2 °F 62% 29.77 in 6.2 mi SSW 6.9 mph - N/A   Scattered Clouds
1:00 PM 92 °F - 74 °F 46% 29.75 in 6 mi SSW 5.8 mph - -   Partly Cloudy
1:00 PM 91.4 °F 100.1 °F 73.4 °F 55% 29.74 in 6.2 mi SSE 6.9 mph - N/A   Scattered Clouds
2:00 PM 93.2 °F 100.5 °F 71.6 °F 49% 29.71 in 6.2 mi South 5.8 mph - N/A   Scattered Clouds
3:00 PM 95.0 °F 101.3 °F 69.8 °F 44% 29.68 in 6.2 mi SSE 6.9 mph - N/A   Partly Cloudy
4:00 PM 94 °F - 69 °F 35% 29.69 in 6 mi South 9.2 mph - -   Scattered Clouds
4:00 PM 95.0 °F 101.3 °F 69.8 °F 44% 29.68 in 6.2 mi South 9.2 mph - N/A   Partly Cloudy
5:00 PM 93.2 °F 98.8 °F 69.8 °F 46% 29.68 in - South 6.9 mph - N/A   Clear
6:00 PM 89.6 °F 96.2 °F 71.6 °F 55% 29.71 in 5.6 mi SE 8.1 mph - N/A   Unknown
7:00 PM 87 °F - 74 °F 57% 29.74 in 5 mi Calm Calm - -   Partly Cloudy
7:00 PM 87.8 °F 95.6 °F 73.4 °F 62% 29.74 in 5.0 mi Calm Calm - N/A   Unknown
8:00 PM 84.2 °F 94.1 °F 77.0 °F 79% 29.74 in 4.3 mi Calm Calm - N/A   Partly Cloudy
9:00 PM 82.4 °F 88.2 °F 73.4 °F 74% 29.77 in 4.3 mi Calm Calm - N/A   Partly Cloudy
10:00 PM 81 °F - 73 °F 70% 29.80 in 4 mi Calm Calm - -   Scattered Clouds
10:00 PM 80.6 °F 85.4 °F 73.4 °F 79% 29.80 in 4.3 mi Calm Calm - N/A   Partly Cloudy
11:00 PM 78.8 °F - 73.4 °F 83% 29.80 in 4.3 mi Calm Calm - N/A   Partly Cloudy